Location: Bratislava
(0.0000°N, 17.1167°E)
Time: 00:48:45
(UTC+01:00)

Daily predictions for brighter satellites

Satellite Brightness Start Highest point End
(mag) Time Altitude Azimuth Time Altitude Azimuth Time Altitude Azimuth
Cosmos 2237 Rocket 3.9 02:49:04 10° SSE 02:53:32 28° ESE 02:53:32 28° ESE
CZ-3B Rocket 3.4 03:13:19 38° ENE 03:13:19 38° ENE 03:15:48 10° E
SL-16 R/B 3.8 03:07:03 10° S 03:10:06 31° S 03:10:06 31° S
CZ-2C R/B 4.4 03:15:51 10° S 03:18:04 24° S 03:18:04 24° S
Spelda 3.5 03:26:05 63° SE 03:26:05 63° SE 03:36:32 10° E
Meteor 2-3 Rocket 3.6 03:37:03 10° S 03:42:41 81° E 03:43:51 57° NNE
deb Ariane 4.4 03:42:20 42° W 03:45:21 66° SSW 03:49:16 10° ESE
USA 215 3.7 03:40:20 10° NE 03:46:44 60° SE 03:53:10 10° SSW
Cosmos 2034 Rocket 3.9 03:42:22 10° S 03:48:45 80° W 03:51:08 41° N
Cosmos 1241 Rocket 4.3 03:48:45 64° NW 03:49:46 83° WSW 03:56:04 10° SSE
BLOCK DM-SL R/B 4.3 03:42:11 32° W 03:50:47 88° N 03:55:35 10° E
ISO 3.1 03:49:39 52° NW 03:50:52 63° N 03:54:49 10° E
SL-16 R/B 4.3 03:49:39 10° SSE 03:54:22 27° ESE 03:59:03 10° NE
Spelda 30 3.3 03:55:03 67° N 03:55:03 67° N 03:57:57 10° ENE
COSMOS 2455 3.6 03:54:28 22° N 03:58:05 48° ENE 04:03:51 10° SE
Cosmos 1862 4.3 03:54:31 10° SSE 03:58:11 43° E 04:00:19 21° NNE
Cosmos-2242 4.2 03:56:09 21° NNE 03:58:30 38° E 04:02:25 10° SSE
H-2A R/B 2.9 03:54:40 10° NNE 03:59:36 49° ESE 04:04:41 10° S
Ariane H10+ 3.3 04:03:01 50° NNE 04:03:01 50° NNE 04:09:32 10° ENE
Cosmos 1437 Rocket 4.4 04:02:08 10° SSE 04:05:30 31° E 04:08:49 10° NNE
Cosmos 1844 3.5 04:04:09 43° NNW 04:06:02 84° WSW 04:11:35 10° SSE
Gblst 52 Del rocket 4.4 04:05:22 46° W 04:06:06 49° SW 04:11:23 10° SSE
ARIANE 5 R/B 2.8 04:03:35 10° NNE 04:08:45 68° ESE 04:13:54 10° S
Cosmos 1371 Rocket 4.4 04:06:13 20° N 04:09:52 62° ENE 04:15:05 10° SSE
NOSS 2-1 (E) 4.3 04:07:07 10° SSW 04:13:20 67° ESE 04:17:39 10° NNE
USA 308 4.2 04:10:50 10° S 04:14:04 34° ESE 04:17:31 10° NE
Ariane H10 3.6 04:14:56 35° ENE 04:14:56 35° ENE 04:16:19 10° E
Cosmos 1420 Rocket 3.9 04:15:43 23° N 04:19:05 87° E 04:24:20 10° SSE
Cosmos 1812 2.4 04:19:12 39° N 04:20:27 90° ENE 04:24:07 10° S
Cosmos 1844 Rocket 3.0 04:18:58 36° WNW 04:20:37 46° WSW 04:26:02 10° S
IRS-P3 4.0 04:21:34 10° N 04:26:53 85° WNW 04:32:14 10° SSW
HETE-2 4.5 04:28:38 34° WSW 04:30:17 76° S 04:34:17 10° E
Cosmos 1624 Rocket 3.9 04:27:12 17° NNW 04:31:13 78° WSW 04:36:29 10° S
GPS 2-12 Rocket1 3.7 04:29:30 28° NNW 04:31:13 40° NNE 04:35:21 10° E
Gbstr 26 Del rocket 3.9 04:29:15 29° WNW 04:31:44 54° SW 04:37:53 10° SSE
Cosmos 1634 Rocket 3.9 04:25:57 10° S 04:32:06 70° W 04:38:13 10° N
USA 281 3.2 04:26:40 10° N 04:33:03 56° WNW 04:39:26 10° SSW
Cosmos 1953 Rocket 3.6 04:31:20 10° SSW 04:35:40 55° W 04:40:00 10° N
Cosmos 1269 Rocket 4.4 04:30:44 10° S 04:35:57 67° ESE 04:41:09 10° NNE
SL-19 R/B 4.0 04:30:59 10° N 04:36:04 62° WNW 04:41:19 10° SSW
Tiangong -0.3 04:34:14 10° SSW 04:37:04 32° SE 04:39:53 10° ENE
Cosmos 2084 Rocket 3.6 04:32:56 10° SW 04:37:25 55° WNW 04:41:43 10° NNE
Cosmos 2237 Rocket 3.9 04:33:41 10° WSW 04:35:01 14° WSW 04:35:01 14° WSW
USA 234 3.5 04:31:29 10° SSE 04:37:49 53° SW 04:42:32 19° WNW
Cosmos 1544 2.7 04:35:39 10° SSW 04:38:46 57° W 04:41:36 12° N
Cosmos 1939 Rocket 2.8 04:35:08 10° N 04:38:46 49° W 04:42:26 10° SSW
Cosmos 1666 3.9 04:35:45 10° SSE 04:39:06 40° E 04:42:25 10° NNE
Cosmos 1782 3.1 04:35:52 10° N 04:39:39 63° E 04:43:27 10° SSE
Nadezhda 4 Rocket 3.9 04:33:42 10° N 04:39:52 70° W 04:46:09 10° S
NOSS 3-4 (A) 4.3 04:34:30 10° S 04:40:02 47° ESE 04:45:14 10° NE
NOSS 3-4 (C) 4.3 04:34:30 10° S 04:40:08 47° ESE 04:45:25 10° NE
Cosmos 1933 4.1 04:36:36 10° N 04:40:25 52° E 04:44:17 10° SSE
SJ-12 4.0 04:42:48 10° NNE 04:46:49 76° ESE 04:50:51 10° S
Cosmos 2279 Rocket 4.0 04:41:58 10° S 04:48:14 83° W 04:54:29 10° N
Hubble Space Telescope 2.6 04:48:17 10° SSW 04:51:52 30° SSE 04:55:27 10° E
GPS 2-18 Rocket1 3.3 04:51:44 19° WSW 04:52:56 29° SSW 04:55:10 10° SE
Intelsat 5-1 Rocket 0.7 04:52:33 17° WSW 04:54:12 68° NNW 04:57:20 10° ENE
Delta 198 4.4 04:50:17 15° NW 04:54:49 52° NNE 04:59:35 10° E
ASTRO E2 2.6 04:52:31 19° WNW 04:54:58 59° SSW 04:58:34 10° SE
Cosmos 1428 Rocket 4.4 04:49:28 10° N 04:55:33 84° W 05:01:41 10° S
H-2A R/B 4.5 04:57:57 12° W 04:57:57 12° W 04:58:47 10° WSW
SJ-6F 4.3 05:00:13 10° N 05:04:14 71° WNW 05:08:15 10° SSW
BlueWalker 3 2.8 05:00:50 10° NNW 05:04:29 47° ENE 05:08:08 10° SE
Helios 1A 3.8 05:00:56 10° SSE 05:04:56 53° ENE 05:08:57 10° N
FengYun 1-2 T 4.3 05:00:09 10° N 05:05:32 58° WNW 05:10:55 10° SSW
CZ-2D R/B 4.3 05:04:57 10° NNW 05:08:23 28° WNW 05:11:55 10° SW
Cosmos 1500 3.7 05:05:57 10° SSW 05:09:10 32° W 05:12:21 10° NNW
GPS 2-17 Rocket1 3.2 05:05:49 10° W 05:10:02 47° NNW 05:14:11 10° NE
Lacrosse 4 Rocket 4.2 05:06:46 10° SSE 05:10:15 25° ESE 05:13:48 10° NE
COSMO-SKYMED 1 4.2 05:07:04 10° SE 05:11:03 36° ENE 05:15:01 10° NNE
Intercosmos 25 Rocket 3.1 05:08:32 10° S 05:11:56 72° E 05:15:04 10° N
NOAA 12 4.2 05:10:53 10° N 05:15:55 51° WNW 05:20:59 10° SSW
Cosmos 1076 Rocket 4.3 05:12:25 10° SSW 05:16:10 30° W 05:19:54 10° NNW
ISS -0.5 05:14:02 10° S 05:16:26 18° SE 05:18:50 10° E
Meteor 1-26 Rocket 4.4 05:11:44 10° N 05:17:42 81° W 05:23:34 10° S
GPS 2-15 Rocket1 3.6 05:13:48 10° NW 05:18:19 52° NNE 05:22:53 10° E
